Location: Austin
(30.3000°N, 97.7500°W)
Time: 11:36:37
(UTC-05:00)

GMS 1 Rocket B - Pass Details

Date: 26 May 2023
Orbit: 529 x 1819 km, 29.1° (Epoch: 31 May)

Event Time Altitude Azimuth Distance (km) Brightness Sun altitude
Rises 21:12:37 0° 266° (W) 2,658 8.8 -9.9°
Reaches altitude 10° 21:14:42 10° 265° (W) 1,805 7.8 -10.3°
Maximum altitude 21:18:44 77° 180° (S) 619 4.5 -11.0°
Enters shadow 21:23:15 12° 94° (E) 2,025 6.7 -11.8°
